Theta_e
293 293 294 295 295 295 294 294 295 295 295 294 293 293 292 292 292 292 292 292 292 292 292 292 292 291 290 289 289 289 289 289 289 290 291 291 290 289 289 289 288 288 288 288 287 287 287 286 286 286 286 286 285 285 285 285 284 284 284 284 284 284 283 283 283 283 282 282 283
291 292 294 296 297 296 294 294 294 295 295 294 293 293 293 293 293 293 292 292 292 292 292 292 292 290 289 289 289 289 288 289 288 289 290 290 290 289 289 289 288 288 288 287 287 287 287 286 286 286 286 286 285 285 285 285 284 284 283 283 283 284 283 283 283 283 282 282 282
290 290 291 292 292 293 293 293 293 293 293 293 293 293 293 293 293 293 293 293 292 292 291 292 291 290 289 288 289 289 288 288 288 288 289 289 289 289 289 289 288 288 288 288 287 287 287 287 286 286 286 286 285 285 285 284 284 284 283 283 283 284 284 283 283 283 283 282 282
288 288 289 289 290 290 292 294 293 293 292 293 291 291 292 293 293 293 293 292 290 290 291 292 291 291 290 290 288 288 288 289 288 288 288 288 289 289 289 288 288 288 287 287 287 287 287 286 287 286 286 286 285 285 285 285 284 284 284 284 284 284 284 284 283 283 283 282 282
287 287 288 288 289 290 291 292 292 292 292 291 291 291 291 292 292 292 291 291 291 292 292 291 291 291 291 290 288 287 287 288 290 290 288 288 288 288 288 288 288 288 287 287 287 286 286 286 286 286 286 286 285 285 285 285 284 284 284 284 284 284 284 284 283 283 283 283 282
288 287 287 287 287 288 289 289 290 290 291 290 290 290 291 291 292 292 292 292 292 292 291 290 291 292 291 289 288 287 287 287 288 289 288 288 288 288 288 288 288 288 288 287 287 286 286 286 286 286 286 286 285 285 285 285 285 284 284 284 284 284 284 283 283 283 283 282 282
287 287 287 286 286 286 287 288 288 288 288 288 288 289 290 291 291 291 291 292 291 290 290 292 292 292 291 289 288 288 287 287 287 287 287 288 288 287 287 287 287 287 287 287 287 286 286 285 286 286 287 287 286 285 285 285 285 284 284 284 284 284 284 283 283 283 283 282 281
286 286 286 286 285 285 286 286 287 287 287 288 288 289 289 290 290 290 290 290 290 290 290 291 290 290 290 289 289 289 288 287 287 287 287 287 287 287 287 287 287 287 287 286 286 286 286 285 286 286 286 286 286 286 285 285 284 284 284 283 284 284 284 283 283 283 282 282 281
286 285 285 284 284 284 284 285 285 286 286 287 288 288 289 289 289 289 289 289 291 291 290 290 289 288 288 288 288 288 288 288 287 287 287 287 287 286 286 286 286 286 286 286 286 285 285 286 286 286 286 286 286 286 285 285 284 284 283 284 284 284 284 284 283 283 282 282 281
287 287 286 285 285 284 284 283 283 284 285 286 287 287 288 291 290 290 289 291 291 290 289 289 288 288 287 287 288 288 288 288 288 287 286 287 287 286 286 286 286 286 286 286 286 285 285 285 285 286 286 286 286 285 285 285 284 283 283 284 284 284 284 284 283 283 283 282 282
287 287 286 286 285 285 285 283 284 284 285 285 286 286 286 289 289 289 289 290 289 288 288 288 288 288 288 288 288 288 288 288 288 287 287 286 287 286 286 286 286 286 286 286 286 286 285 285 285 285 285 285 285 285 285 285 284 284 283 284 284 284 283 283 283 283 283 282 282
287 286 286 285 284 284 284 283 284 285 285 285 285 285 285 286 286 287 288 288 288 288 288 288 287 288 288 289 289 289 289 288 287 287 287 286 286 286 286 285 285 285 285 285 285 285 285 285 285 285 285 285 285 285 285 285 284 284 283 283 283 283 283 283 283 283 283 283 282
287 286 286 285 283 283 283 284 284 284 285 285 285 285 286 287 287 287 287 286 287 288 289 288 287 287 287 288 289 289 288 288 287 287 287 286 286 285 285 285 285 285 285 285 285 285 285 285 285 284 284 285 285 285 285 285 284 284 283 283 283 283 283 283 283 283 283 282 282
286 286 286 285 284 284 284 284 285 285 285 285 285 286 286 286 286 287 287 286 287 288 288 287 287 288 288 288 288 288 288 288 287 287 286 286 286 285 285 285 285 284 284 285 284 285 285 285 284 284 284 284 285 285 285 285 284 284 283 283 283 283 283 283 283 283 283 282 282
286 286 285 285 284 284 284 285 285 285 286 285 286 286 286 286 287 287 287 286 287 287 287 286 288 288 288 287 287 287 287 287 286 286 286 286 286 285 285 285 284 284 284 284 284 284 284 284 284 284 284 284 285 285 285 285 284 284 284 283 283 283 283 283 283 283 283 282 282
287 286 286 285 285 285 285 285 286 286 286 287 286 286 286 286 287 287 287 286 287 287 287 286 287 287 287 287 287 286 286 286 286 286 286 286 286 285 285 285 284 284 284 284 284 284 284 284 284 284 284 284 284 285 285 285 285 284 284 284 283 283 283 283 283 283 283 282 282
287 286 286 285 285 285 285 285 285 286 286 287 286 286 286 286 286 287 287 288 288 287 287 287 287 287 287 287 287 286 286 286 286 286 286 286 286 285 285 285 285 284 284 283 283 283 283 284 284 284 284 284 284 284 284 284 285 284 284 284 284 283 283 284 283 283 283 282 282
287 287 286 285 285 285 285 285 285 285 286 286 286 286 286 286 286 287 288 288 287 287 287 287 287 287 286 286 286 287 287 286 286 286 286 286 286 286 285 285 285 284 284 283 283 283 283 283 284 284 284 284 284 284 284 284 284 284 284 284 284 283 283 283 283 283 283 282 283
287 287 286 286 285 285 285 286 286 286 286 286 286 286 286 286 285 286 286 286 286 286 286 287 287 287 286 286 286 287 288 287 287 286 286 286 286 286 285 285 285 284 284 283 283 283 283 283 283 283 283 284 284 284 284 283 284 284 284 284 284 283 283 283 283 283 283 283 282
287 287 287 287 286 286 286 286 286 286 286 287 286 286 287 287 286 286 286 287 287 286 286 286 286 287 287 286 286 286 287 288 287 287 286 286 286 286 285 285 285 284 284 283 283 283 283 283 283 283 283 283 283 283 283 283 283 283 283 283 283 283 283 283 283 283 283 282 282
288 288 287 287 286 286 286 286 286 286 286 286 287 287 287 287 287 286 287 287 287 286 285 285 286 286 286 286 286 286 287 288 287 287 286 286 286 286 285 285 285 284 284 283 283 283 283 283 283 283 282 282 282 282 282 283 283 282 282 283 283 283 283 282 282 282 282 282 282
288 288 287 286 286 286 286 286 285 286 286 287 287 287 287 287 287 287 287 286 286 285 285 286 286 286 286 287 287 287 287 288 287 287 287 286 286 286 286 285 285 284 284 283 283 283 282 282 282 282 282 282 282 282 282 282 282 282 282 282 282 282 282 282 282 282 282 282 282
289 288 287 286 285 286 287 287 286 286 286 287 287 287 287 287 287 287 287 285 286 286 286 286 287 287 287 287 287 286 287 287 286 286 286 286 286 285 285 285 284 284 284 283 283 282 282 282 282 282 282 282 281 281 282 282 282 282 282 281 281 281 281 281 281 281 281 282 282
288 287 287 287 286 286 286 285 285 286 286 287 287 287 287 287 287 287 286 286 286 286 286 287 287 287 287 286 286 286 286 286 286 286 286 285 285 285 285 284 284 284 284 284 284 284 284 283 282 281 281 281 281 281 281 281 281 281 281 281 281 281 281 281 281 281 281 281 281
288 287 286 286 286 285 285 285 286 286 287 287 287 287 287 287 287 287 287 286 286 286 286 286 287 287 287 286 286 285 285 285 285 285 286 285 285 285 285 285 284 284 284 285 288 289 290 289 286 284 282 281 281 281 281 281 281 281 281 281 281 281 281 280 280 280 280 280 280
287 286 286 286 285 285 285 286 286 287 287 287 287 287 287 288 287 287 286 286 287 287 287 286 286 287 288 287 287 286 286 286 286 286 286 286 285 285 285 285 285 285 285 287 290 292 293 293 292 289 285 282 281 281 281 281 281 281 280 280 280 280 280 280 280 280 280 280 280
287 286 286 286 285 285 286 287 287 287 287 287 287 287 288 288 287 287 286 287 287 287 287 286 286 288 289 288 287 286 286 287 287 286 286 285 285 285 285 285 285 285 286 288 291 293 293 294 295 293 290 285 282 281 281 281 280 280 280 280 280 280 280 280 280 280 280 280 280
287 287 287 286 285 286 287 287 287 287 287 288 288 288 288 287 287 287 287 287 287 287 287 287 287 287 288 287 286 286 286 286 287 287 286 286 286 285 285 285 285 286 287 290 292 293 294 294 295 295 294 290 286 283 281 280 280 280 280 280 280 280 280 280 280 280 280 280 279
288 288 287 286 286 287 287 287 287 288 288 288 288 288 287 287 287 287 287 287 287 287 287 288 288 287 286 287 287 287 286 286 286 287 286 286 286 285 285 285 285 287 289 292 293 294 295 295 295 295 295 294 291 287 283 281 281 281 281 281 280 280 280 280 280 280 280 280 279
289 288 287 287 287 287 288 288 289 289 289 289 288 287 287 287 287 287 287 287 287 287 288 288 288 287 287 287 287 287 287 287 287 286 286 285 285 285 285 286 286 287 289 293 294 294 295 295 295 295 295 295 293 290 287 284 282 281 281 281 281 281 280 280 280 280 280 280 280
289 288 288 287 287 288 288 289 289 289 289 289 288 288 287 287 287 288 288 287 288 289 289 287 287 287 287 287 287 287 287 287 287 286 286 285 286 286 286 286 286 287 289 292 294 294 295 295 295 295 295 295 294 292 290 287 285 283 282 281 281 281 281 281 280 280 280 280 280
289 288 288 288 288 288 288 289 289 289 289 288 288 288 288 288 288 288 288 288 288 288 288 287 287 287 287 286 286 286 286 286 286 286 286 286 286 286 286 286 285 287 289 292 293 294 295 295 295 295 295 295 294 292 290 289 287 285 283 282 282 281 281 281 281 281 281 281 281
289 289 288 288 288 288 289 289 289 289 289 289 288 288 288 288 288 288 288 288 287 287 287 287 287 287 287 287 286 287 287 287 287 287 288 288 287 286 286 286 286 288 290 293 294 294 295 295 295 295 295 295 294 292 291 290 289 287 285 283 282 282 282 281 281 281 281 281 281
290 290 289 289 289 289 289 289 289 289 289 289 288 288 288 288 288 288 288 288 288 287 287 287 287 287 287 287 287 287 288 289 289 288 287 287 286 286 286 286 287 289 291 293 294 294 295 295 295 295 295 295 293 292 290 290 290 288 287 285 284 283 283 282 282 282 281 281 281
290 290 290 290 289 290 290 290 289 289 289 289 289 289 288 288 288 288 289 289 289 288 288 287 287 287 287 287 287 287 287 288 288 287 287 287 286 286 286 286 286 289 292 293 294 295 295 295 295 295 295 294 292 291 290 289 289 289 288 287 286 284 284 283 282 282 281 281 281
291 291 291 290 290 290 290 290 290 289 289 289 289 289 289 289 289 288 289 290 289 288 287 287 287 287 287 287 287 287 288 287 287 287 287 287 286 286 286 286 286 288 291 293 294 294 295 295 295 295 294 293 291 290 289 289 289 288 288 288 287 286 285 284 283 282 282 281 281
292 292 292 292 291 291 291 291 290 290 289 289 289 289 289 289 289 288 288 289 288 287 287 287 287 287 287 287 288 288 288 288 288 287 287 288 288 287 287 287 286 287 290 292 293 294 294 295 295 295 294 292 290 289 288 288 288 287 287 287 287 286 286 285 284 283 282 281 281
294 294 293 293 292 292 292 291 291 290 290 290 290 290 289 289 288 288 288 289 288 288 287 287 288 288 288 287 288 288 288 288 288 288 288 288 288 288 287 287 287 287 289 291 293 293 294 294 294 294 293 291 289 288 288 287 287 287 287 286 287 286 286 285 284 283 282 281 283
295 294 294 293 293 292 292 292 291 291 291 290 290 290 289 289 288 288 289 289 289 288 288 288 288 288 288 288 289 289 288 287 288 288 288 288 288 288 289 288 288 288 289 291 292 293 293 294 294 294 293 291 289 288 288 287 286 286 286 286 286 286 286 285 284 283 282 281 284
295 295 294 294 293 293 292 292 292 292 291 291 291 290 290 289 289 290 289 289 288 288 288 288 288 288 289 290 289 289 288 288 287 288 288 288 288 290 291 290 288 288 289 291 292 293 293 293 293 294 293 291 289 288 287 287 286 286 285 285 285 285 285 284 284 283 282 281 284
295 295 294 293 293 293 292 292 292 292 292 291 291 290 290 290 290 290 289 289 288 288 288 288 288 288 288 289 289 289 288 288 288 288 288 288 289 290 290 289 288 288 288 289 291 292 293 293 293 293 293 291 289 288 287 286 285 285 285 285 285 285 284 284 283 283 282 281 281
Wind_Speed
7 7 7 7 7 6 6 6 7 7 6 6 6 6 6 6 7 7 6 6 6 6 6 6 7 7 7 8 9 11 12 12 13 14 14 15 14 14 14 13 13 13 12 12 12 11 11 11 10 9 8 8 8 9 9 8 9 10 11 11 11 11 12 14 14 14 14 14 12
7 7 8 8 8 7 6 6 6 6 6 6 6 6 6 6 7 7 7 7 7 6 6 6 6 7 7 9 10 10 11 12 13 14 14 15 15 14 14 13 13 13 13 13 12 11 10 11 10 9 8 8 8 9 10 9 9 10 11 13 11 10 11 12 13 14 14 13 12
6 6 6 6 6 6 6 6 6 7 7 7 6 6 6 6 6 7 7 7 7 7 6 6 6 7 8 9 9 9 10 11 12 13 13 14 14 14 14 13 13 14 14 13 13 12 11 11 10 10 9 8 9 10 10 10 10 10 11 13 11 9 9 10 11 11 11 10 11
4 4 5 5 7 7 7 6 7 8 8 7 7 6 6 6 6 6 7 6 6 6 7 7 7 8 8 9 9 9 10 11 12 12 13 13 14 14 14 13 14 14 14 13 13 13 13 12 10 9 10 10 11 11 10 9 10 10 10 11 9 9 10 10 9 9 8 9 10
4 4 4 5 7 8 7 6 7 7 7 6 5 5 5 5 6 6 6 6 6 7 8 8 8 8 8 8 9 9 10 11 12 12 12 13 13 14 14 14 14 14 14 13 14 14 13 13 10 9 9 10 9 9 10 10 10 10 9 8 8 9 9 9 8 7 7 8 7
4 4 4 4 6 6 6 6 7 7 6 5 5 5 6 5 5 6 7 7 8 9 9 9 8 8 8 8 9 9 10 10 11 11 12 13 12 13 13 14 14 14 13 13 13 13 13 12 10 9 9 9 9 10 11 11 11 10 10 9 9 9 8 9 8 7 7 8 9
4 4 5 5 5 5 5 5 6 6 5 4 5 6 7 7 7 8 8 9 8 7 7 7 8 9 9 8 9 9 9 10 10 11 12 12 12 12 13 13 14 14 13 13 13 13 12 12 10 9 10 10 9 10 11 11 11 11 11 11 10 9 9 10 8 7 9 11 12
4 4 4 5 5 5 5 5 4 4 4 4 6 8 9 9 9 9 9 7 7 6 6 6 7 9 9 9 9 10 10 10 10 11 11 11 12 13 13 13 13 13 14 13 13 13 12 11 10 10 10 10 9 10 11 12 13 13 13 13 11 9 9 8 8 8 9 12 12
4 4 4 4 4 4 4 5 4 4 5 6 7 8 9 9 9 8 8 7 7 7 6 6 8 9 9 10 10 10 10 10 11 11 11 11 12 13 13 12 13 13 13 13 13 13 12 10 10 10 10 10 10 10 11 13 14 14 14 13 12 11 11 10 10 10 11 12 13
4 4 4 4 4 4 4 4 4 4 5 6 8 8 8 8 8 7 7 7 6 6 6 6 7 8 9 10 10 11 10 10 10 10 11 11 12 13 13 12 13 13 13 12 12 12 12 11 11 11 12 11 12 12 12 13 14 15 15 12 13 13 14 13 12 13 13 13 13
5 4 4 4 4 4 3 3 3 3 4 6 7 8 7 8 7 7 6 5 5 6 7 7 7 8 9 9 10 10 10 10 10 10 11 11 12 13 13 13 13 13 13 12 11 11 11 11 12 13 14 13 13 13 13 13 14 15 15 14 14 15 15 15 14 14 13 13 14
5 4 4 4 4 3 3 3 3 3 4 5 6 7 7 7 7 6 5 5 6 7 7 7 7 8 8 9 9 9 10 9 10 10 11 12 12 13 13 13 13 14 13 13 11 10 10 12 13 14 15 15 13 12 12 14 14 15 16 16 15 16 16 16 16 14 13 13 14
4 4 4 4 3 3 3 3 3 3 4 5 6 6 6 6 6 5 5 6 7 7 7 7 7 7 8 8 9 9 9 9 10 10 11 12 12 12 13 13 13 13 13 12 11 11 11 12 14 15 16 16 14 13 13 14 15 16 16 17 17 17 17 17 16 14 14 14 14
4 4 4 4 3 3 3 3 3 4 4 6 6 6 6 6 6 5 4 6 7 8 7 6 6 6 7 8 9 9 9 9 10 11 12 12 12 12 13 13 13 13 12 11 11 12 13 13 14 15 16 17 16 15 15 15 15 16 17 17 18 18 18 17 16 15 15 15 15
4 4 4 4 3 3 3 4 4 4 5 6 6 6 6 6 5 5 5 5 7 7 7 6 6 7 7 8 9 9 9 9 10 11 12 13 13 13 13 13 13 13 12 12 12 13 14 15 15 16 16 17 17 17 16 15 16 16 16 17 18 18 18 17 16 15 15 16 16
4 5 4 3 4 4 4 5 5 5 5 6 6 6 6 6 5 5 5 6 6 6 6 7 7 7 7 8 8 8 9 9 10 10 12 12 13 13 13 13 13 13 13 13 13 13 14 15 15 15 16 16 17 17 16 16 16 16 17 17 17 17 17 17 16 16 16 17 17
5 5 4 4 5 5 6 6 6 5 6 7 7 7 6 6 5 5 5 6 6 6 7 8 7 7 7 7 7 7 7 8 9 10 11 12 13 13 14 14 14 13 13 13 13 14 15 15 15 15 16 16 16 16 16 16 16 16 17 17 17 17 17 17 17 17 17 17 18
5 5 5 5 6 7 8 8 7 7 7 8 8 7 6 6 6 6 6 6 6 7 8 9 8 7 7 8 7 7 7 8 9 10 11 12 13 13 14 14 14 13 13 13 14 15 15 16 15 15 15 15 15 15 15 15 15 16 16 17 16 16 16 16 17 17 17 17 18
6 6 7 7 8 8 9 9 8 8 8 8 8 7 7 7 7 7 7 7 7 7 8 9 8 8 8 9 8 8 7 8 10 11 12 12 12 13 13 13 13 13 13 13 14 15 15 15 15 15 15 14 14 14 14 14 15 15 16 16 16 16 15 16 16 16 16 17 17
7 8 8 9 8 8 9 9 8 8 8 7 8 8 9 9 8 8 8 9 8 7 7 8 9 9 9 9 9 9 8 8 10 11 12 12 12 12 13 13 13 13 13 13 13 14 15 15 15 15 15 14 14 15 15 14 15 15 15 15 15 15 15 15 15 15 16 16 17
8 9 9 8 8 8 8 8 8 7 8 8 9 9 10 10 9 9 9 10 9 8 7 8 9 9 10 10 10 10 9 8 9 10 11 11 12 12 13 12 12 12 12 12 13 14 14 14 14 14 14 14 15 15 15 14 14 15 15 14 14 14 15 15 15 15 15 16 16
9 9 9 8 8 8 8 8 7 7 8 9 9 9 10 10 10 10 10 9 8 8 8 9 9 10 10 10 11 10 10 9 9 10 10 10 11 11 12 11 11 12 12 12 13 13 14 14 14 14 14 14 14 15 15 14 15 15 15 15 14 14 14 14 14 15 15 16 16
9 9 8 7 7 8 8 8 7 7 8 9 9 9 10 10 10 10 9 8 8 8 9 9 9 10 10 10 10 10 10 10 10 10 10 10 11 11 11 10 11 12 12 12 12 12 12 13 13 13 13 13 14 14 15 15 15 15 15 15 15 14 14 13 14 14 15 15 15
9 8 7 6 6 7 7 6 7 7 8 9 10 10 10 10 10 10 9 9 9 10 10 9 9 9 10 10 9 10 10 10 11 11 11 11 11 11 11 10 10 11 11 11 11 12 12 11 11 11 12 12 13 13 14 14 14 14 14 14 14 14 13 13 13 14 14 15 15
9 8 7 6 6 6 6 7 8 9 9 10 9 9 10 10 10 10 9 10 10 11 10 10 9 9 9 9 9 9 9 10 11 12 12 12 12 11 11 10 10 10 10 10 15 18 19 17 14 11 10 10 11 12 12 13 14 14 14 13 14 13 13 13 14 14 14 14 14
8 7 7 8 7 7 7 9 9 9 9 9 9 10 10 10 9 9 9 10 11 11 11 10 10 9 9 8 9 9 9 10 11 11 12 13 13 12 11 10 9 9 9 12 18 22 25 25 22 18 13 10 10 11 11 12 13 13 13 13 13 13 13 14 14 15 14 13 13
7 8 8 8 8 8 9 9 9 9 9 9 10 10 10 10 9 9 9 11 11 11 10 9 9 9 9 8 9 10 10 10 10 11 12 12 13 13 12 11 10 9 10 14 20 23 25 26 27 24 19 12 11 11 11 11 12 12 13 13 13 14 14 15 15 15 14 13 13
8 8 9 9 9 9 10 9 9 10 10 10 10 10 10 9 9 10 10 11 11 10 9 8 8 7 6 6 8 10 11 11 11 11 11 11 12 13 13 12 10 10 13 17 22 24 25 26 27 27 24 18 12 11 11 11 11 11 12 12 13 14 15 15 14 14 13 13 12
10 10 10 9 10 10 10 10 10 11 11 11 10 10 10 10 10 10 11 11 10 10 9 8 7 6 6 7 9 10 10 10 10 10 10 11 12 12 12 12 12 13 16 21 23 25 25 25 26 26 26 24 15 11 9 10 10 11 11 11 12 13 14 14 13 13 13 13 12
11 10 10 10 11 11 11 11 12 11 11 10 9 9 10 10 11 11 11 11 11 10 9 8 7 7 8 9 9 9 10 10 10 9 10 11 12 13 13 13 13 14 17 22 24 25 25 26 26 26 26 27 21 14 10 9 10 11 11 11 12 13 14 14 14 14 13 13 12
11 10 10 10 11 11 12 12 12 11 10 10 9 10 10 11 12 11 11 10 10 9 9 7 9 10 11 10 9 9 10 10 10 10 10 11 13 14 14 14 13 14 17 21 24 25 25 26 26 26 26 26 22 17 12 10 10 11 11 11 13 14 15 14 15 15 15 15 14
11 10 10 10 11 12 12 12 12 11 11 10 10 11 11 12 12 11 9 8 8 8 8 8 10 11 11 9 8 9 9 10 11 11 11 12 13 14 14 14 13 14 17 21 24 25 25 26 26 26 26 26 22 18 14 12 11 11 12 13 14 15 15 14 14 15 16 16 15
11 10 10 11 12 12 12 12 12 11 11 11 11 11 12 13 11 10 9 8 7 7 8 9 10 10 10 9 8 9 9 10 11 12 13 13 13 13 13 13 12 14 17 21 23 25 25 25 25 25 25 26 21 18 15 14 11 10 11 12 14 15 16 16 15 15 16 16 16
11 11 11 11 12 12 12 12 12 12 11 12 12 12 12 11 12 11 10 8 7 7 7 8 9 9 9 8 9 9 10 11 11 11 12 12 12 12 13 12 11 13 17 21 23 24 25 25 25 25 25 25 19 16 13 14 12 11 11 12 13 14 16 16 16 16 15 16 15
11 11 11 12 12 12 12 12 12 12 12 13 13 13 13 11 12 12 11 9 8 7 7 8 8 8 8 9 8 9 10 12 12 12 12 11 11 12 13 13 12 15 18 22 24 25 25 25 25 25 24 22 16 12 11 13 13 13 12 12 13 14 15 15 15 15 15 15 15
12 12 12 12 12 12 13 13 13 13 13 14 14 14 14 12 11 10 9 9 8 8 7 8 7 7 8 9 9 9 10 11 12 12 11 11 11 12 13 14 14 16 19 22 24 25 25 25 25 25 23 18 12 10 9 10 11 11 12 12 12 13 14 14 14 13 14 14 14
12 12 13 13 13 13 13 13 13 14 14 15 14 14 13 13 11 10 9 7 7 7 7 8 8 8 8 8 10 10 10 10 10 11 11 11 11 12 13 14 14 15 17 21 23 24 25 25 25 24 21 16 11 9 8 8 9 10 11 12 12 12 12 11 11 12 13 13 14
12 12 12 13 13 13 14 14 14 14 15 15 14 13 11 11 10 9 8 7 8 8 8 8 9 10 9 9 10 10 10 10 10 11 11 12 12 12 13 15 14 14 15 18 21 23 24 25 25 24 20 14 11 9 8 8 8 9 10 11 11 11 10 9 9 10 11 14 16
12 12 12 12 13 14 14 14 14 15 15 15 14 13 12 10 9 8 7 7 7 7 8 8 10 10 10 10 10 10 10 10 10 10 11 12 12 13 14 15 15 14 15 17 20 22 24 24 24 24 21 16 11 9 7 7 8 9 10 10 10 10 9 8 7 8 10 13 19
13 12 12 13 13 14 14 15 15 15 15 14 14 14 12 10 9 9 8 7 7 7 8 9 10 11 11 10 10 10 11 11 10 10 11 12 13 15 16 16 15 15 16 18 20 22 23 24 24 23 21 16 11 8 7 7 8 9 10 10 9 9 8 7 7 7 8 11 17
13 13 13 13 13 14 14 15 15 15 15 14 14 13 11 9 9 8 8 7 8 8 8 9 10 10 10 10 10 10 11 11 11 11 11 12 13 14 15 15 15 15 15 16 19 21 23 23 24 23 21 15 10 8 7 7 8 9 10 10 9 8 7 7 6 7 7 9 11
Wind_Direction
245 243 243 241 241 241 241 242 242 241 240 239 240 238 236 233 238 240 240 235 236 237 238 237 235 235 232 225 220 220 221 222 223 224 225 225 226 225 224 224 222 221 221 220 218 217 216 215 216 219 222 222 224 226 226 224 222 222 223 223 226 227 227 227 229 228 227 226 226
247 244 244 245 244 243 242 244 244 243 241 238 238 237 236 234 237 240 241 237 236 236 238 240 238 236 233 228 222 220 221 223 223 224 226 227 227 226 225 224 223 221 220 219 217 216 215 213 214 217 221 223 224 226 226 223 220 221 223 224 225 226 227 228 230 229 227 226 226
254 252 251 249 247 245 244 245 245 243 241 241 238 236 235 235 236 239 241 238 236 236 237 241 239 236 233 230 225 222 221 223 223 224 226 228 229 227 226 225 223 222 221 219 217 216 215 212 212 215 219 221 221 224 225 223 218 220 223 224 225 225 226 229 229 228 226 226 224
263 257 253 249 244 242 241 243 243 242 240 240 238 236 236 236 238 240 242 243 240 238 237 238 240 237 234 231 228 226 224 224 223 225 227 229 229 228 226 225 224 223 221 219 218 217 216 212 213 216 219 220 221 223 224 222 218 219 222 224 224 225 226 229 227 225 223 225 222
281 266 255 249 244 242 242 243 244 244 243 241 239 238 238 238 240 243 246 246 243 240 238 237 240 240 238 233 230 228 227 226 226 227 228 230 230 229 227 225 224 224 222 220 218 217 216 212 215 218 220 221 221 223 223 221 219 220 223 224 223 224 226 228 226 223 221 223 221
292 285 274 263 254 252 252 251 250 250 251 251 246 243 242 240 238 239 241 243 243 242 240 238 241 243 242 237 232 230 229 229 228 229 230 231 231 230 229 228 226 225 223 221 219 217 215 212 217 220 222 222 224 225 224 220 220 221 223 225 224 223 224 225 224 222 220 222 221
286 287 286 280 270 264 262 260 258 258 260 260 252 247 244 242 239 237 238 241 245 244 243 240 240 241 241 238 236 234 232 231 231 230 231 233 233 231 230 229 228 227 225 223 220 217 215 212 217 222 224 223 225 224 222 218 219 221 223 224 223 222 221 223 222 220 220 221 220
278 279 280 280 275 271 267 266 266 266 264 259 251 247 245 244 242 241 242 244 246 245 243 241 237 237 237 236 237 236 235 234 233 232 231 233 234 233 232 230 229 228 227 224 220 218 215 213 217 221 223 223 225 223 220 215 217 219 222 224 224 221 219 219 218 218 218 219 219
290 286 283 282 277 273 270 268 266 263 261 257 252 249 247 246 244 244 245 247 247 246 243 241 237 234 233 234 236 237 236 234 234 233 232 232 233 233 233 232 230 229 228 225 221 218 216 215 219 221 222 222 224 222 218 212 214 217 221 223 224 223 220 218 216 216 217 218 218
298 297 296 295 287 280 275 273 265 258 255 257 257 256 254 254 251 248 246 247 249 249 246 242 236 234 232 233 236 237 237 236 235 234 234 233 232 233 233 232 230 230 229 225 222 219 217 218 221 223 224 224 224 223 220 213 213 216 219 222 223 223 222 219 216 215 216 217 218
293 293 292 292 289 287 286 282 272 262 256 258 261 261 261 260 257 254 252 254 257 255 251 246 239 235 234 235 237 238 238 237 237 236 235 235 234 233 232 232 230 230 228 226 222 219 218 220 224 225 226 226 225 225 222 217 215 216 219 222 222 223 223 221 217 216 216 217 218
288 288 287 285 285 288 290 284 278 270 265 263 264 265 265 263 259 259 260 264 261 259 257 252 243 239 238 241 240 240 239 238 237 238 238 237 236 235 234 233 232 231 229 227 222 219 219 222 224 226 227 227 226 225 223 220 218 218 220 222 222 222 223 222 219 216 215 215 217
286 289 290 289 289 290 289 285 280 275 273 271 269 268 267 266 262 261 262 262 261 262 263 259 248 242 241 244 244 243 241 238 237 238 238 239 239 237 236 235 234 233 231 229 224 221 222 223 224 225 226 227 226 225 223 220 219 220 221 222 222 222 223 222 219 217 215 214 216
287 288 288 290 292 291 288 284 280 278 276 275 272 270 270 271 268 265 261 258 260 263 266 266 257 249 244 244 245 244 242 240 238 238 239 241 240 239 237 237 235 234 233 231 226 224 224 225 224 225 226 227 227 226 223 220 220 220 221 222 223 223 223 222 218 216 214 214 216
289 286 285 288 289 287 283 279 277 276 276 275 273 272 272 273 271 267 262 259 260 263 266 268 265 259 252 246 245 245 244 243 241 241 241 242 242 241 239 239 237 235 233 232 229 226 225 226 226 226 226 227 227 227 225 222 221 222 222 222 223 223 223 221 218 215 214 214 215
287 285 285 286 285 282 278 275 274 273 273 274 274 274 274 273 273 271 266 261 262 264 266 264 264 263 260 253 248 246 245 245 244 244 244 245 245 243 242 241 239 236 233 231 230 229 227 227 227 227 227 228 228 228 226 224 224 223 223 223 223 223 223 221 217 215 214 213 214
282 281 281 279 278 276 274 273 273 272 273 273 275 275 274 273 274 272 268 262 263 266 267 265 263 264 264 262 254 248 246 247 246 246 246 246 246 245 244 242 240 237 234 231 231 230 229 229 228 228 228 229 229 229 228 226 226 225 225 225 224 224 223 221 218 216 215 215 215
277 276 275 273 271 271 271 272 273 273 273 274 276 275 274 273 274 273 271 266 262 263 265 268 267 265 264 264 260 254 249 248 248 248 247 247 247 247 246 244 242 239 235 232 231 231 231 230 230 229 230 230 230 230 229 227 227 227 226 226 225 225 223 222 220 218 217 216 216
272 272 272 269 267 267 269 270 271 272 273 273 275 276 276 274 272 273 274 272 264 259 260 266 269 268 265 262 261 258 254 251 251 250 250 249 249 249 248 247 245 241 237 234 233 233 232 232 231 230 230 230 231 230 229 228 228 228 227 227 226 225 224 222 221 219 218 217 217
265 267 267 265 265 265 266 267 268 269 272 274 276 277 277 276 273 272 272 271 267 263 260 262 267 268 267 264 262 260 257 255 253 253 253 253 252 250 249 248 247 244 240 236 235 235 234 234 232 231 230 230 230 230 229 228 229 228 228 228 227 226 224 223 221 220 219 218 217
259 260 260 260 261 261 262 264 266 269 272 275 276 276 276 277 275 272 269 268 269 268 264 261 263 264 266 266 264 262 260 258 255 255 255 255 253 251 250 249 248 246 243 239 238 237 236 235 233 231 230 229 229 229 229 228 229 229 228 228 227 226 225 222 221 220 219 218 217
254 254 255 256 256 258 260 263 266 270 272 274 275 275 275 276 274 272 270 269 270 269 265 261 261 261 262 263 263 263 262 263 259 257 256 256 255 253 251 249 248 247 245 242 240 238 237 236 234 232 230 230 229 229 228 228 229 229 229 229 228 227 225 223 221 220 220 219 218
250 252 253 253 254 257 259 263 266 270 272 273 274 275 275 275 274 274 273 273 271 267 264 262 261 259 259 259 260 263 265 267 265 262 260 257 257 256 254 251 249 247 246 244 241 239 238 238 237 234 232 230 230 229 229 228 229 229 230 229 228 227 225 223 221 220 220 219 218
249 251 253 254 255 256 259 263 267 270 271 271 272 273 274 275 276 277 277 275 271 267 264 263 263 261 261 261 261 262 264 266 267 266 264 260 258 257 255 253 249 248 246 245 241 238 236 236 236 234 233 231 231 230 230 229 229 229 229 229 229 228 226 224 221 220 220 220 219
250 251 254 255 256 258 261 264 266 267 268 269 271 272 273 274 275 277 277 276 273 269 266 265 265 265 265 265 263 261 260 260 263 265 266 265 261 258 256 254 251 248 246 246 245 244 242 240 237 233 230 230 231 231 231 230 229 229 229 229 229 229 228 227 225 223 222 221 220
253 254 255 254 256 259 262 263 263 264 266 268 270 271 271 272 273 274 274 274 273 271 269 268 267 267 266 265 264 262 260 258 258 260 262 264 264 261 258 255 252 250 247 246 248 248 248 248 245 241 234 226 226 229 231 231 229 229 229 229 229 228 229 229 228 226 224 222 220
256 257 256 255 257 259 261 261 263 265 267 268 269 269 269 270 271 271 271 271 272 272 272 270 267 266 266 265 263 262 260 259 259 258 259 260 262 262 260 258 254 251 248 248 250 252 253 253 252 249 244 229 222 222 226 229 228 227 227 228 229 229 229 231 230 229 226 224 222
258 257 258 260 261 261 261 263 265 267 267 267 267 267 269 270 270 269 269 269 271 273 273 271 266 263 262 262 259 258 258 259 260 260 260 259 260 260 260 259 257 253 251 252 253 255 256 256 257 255 252 244 230 220 219 224 225 225 225 227 229 229 230 231 231 230 228 225 222
256 258 260 261 261 262 263 265 265 265 266 266 267 268 269 270 268 267 266 268 269 270 270 269 267 264 261 260 259 259 259 259 259 260 261 262 261 260 259 259 258 257 257 257 258 258 259 259 259 259 258 254 245 229 215 217 221 223 224 225 226 228 229 230 230 229 228 225 222
257 257 258 259 260 262 263 263 263 264 266 269 270 270 270 269 268 266 265 265 265 264 263 265 268 267 264 262 263 263 263 262 260 260 260 261 261 261 260 259 258 258 259 260 261 261 262 261 261 260 260 258 255 246 228 214 216 219 223 225 226 226 227 228 228 228 227 225 222
259 259 258 259 260 261 262 262 264 266 269 271 271 271 270 269 267 265 263 261 261 262 263 265 266 265 264 263 263 264 265 265 264 262 260 260 261 261 261 260 259 260 261 262 263 263 264 264 263 262 261 260 257 253 242 224 217 216 219 223 224 225 225 226 226 225 224 223 222
263 262 262 262 262 262 263 265 268 270 271 272 271 271 269 268 266 264 263 261 262 265 267 267 266 266 266 266 264 262 261 262 262 261 259 258 259 260 261 262 260 260 262 263 264 264 265 264 264 264 263 261 259 256 251 240 227 219 218 220 223 224 224 223 223 223 222 220 220
268 266 265 263 264 265 267 269 271 273 274 274 272 271 269 268 267 267 265 263 261 261 262 264 265 265 267 267 267 265 263 261 260 259 259 258 259 261 262 263 262 261 262 263 264 265 265 265 264 264 263 261 260 257 254 249 240 228 220 219 221 223 224 224 223 222 220 218 218
270 269 266 264 265 267 270 273 274 275 276 276 274 272 270 269 269 268 267 263 260 258 258 259 261 262 264 264 266 267 268 267 265 263 262 261 261 262 262 263 262 262 263 264 265 265 265 265 264 263 263 261 260 257 254 252 249 240 229 222 222 223 224 223 223 221 219 216 216
271 269 268 266 267 269 272 275 277 277 278 278 276 274 272 269 267 266 265 265 264 263 263 263 262 263 264 264 262 263 265 268 268 266 264 263 263 263 263 263 263 263 264 265 266 267 266 266 265 264 262 261 259 255 252 252 251 248 241 231 226 224 224 223 221 219 217 215 214
269 268 267 268 269 271 273 276 278 278 278 277 276 275 274 271 268 265 264 265 266 266 266 266 266 266 266 265 263 261 261 262 264 265 265 264 264 265 265 265 265 264 264 266 267 267 267 266 265 264 263 261 257 252 248 248 249 249 246 242 235 229 225 222 219 216 214 212 212
269 267 267 269 271 272 274 275 277 277 277 276 275 274 274 273 271 268 265 264 265 265 266 266 267 267 266 266 266 265 263 262 265 267 269 268 267 267 268 269 268 266 265 266 267 267 267 266 265 264 262 260 255 249 245 244 245 246 246 246 242 237 230 224 218 214 211 209 209
272 270 270 271 273 274 276 276 276 276 275 275 274 274 273 272 271 268 265 262 262 263 266 267 268 268 268 267 268 268 267 265 265 267 269 270 269 269 271 273 272 270 267 266 267 267 266 265 264 262 260 257 253 248 244 242 242 242 243 244 244 240 234 227 219 213 210 207 208
279 277 275 275 276 277 278 278 277 276 275 275 276 275 274 272 270 266 263 260 259 261 265 268 269 270 270 271 272 272 271 268 264 265 267 269 269 271 273 275 275 273 271 269 268 267 265 264 263 261 259 256 251 246 242 240 241 241 241 242 243 241 236 228 220 213 209 208 211
285 283 281 280 279 279 280 279 278 277 276 276 276 275 274 271 268 266 264 262 260 261 263 267 269 270 272 273 274 275 275 273 269 266 266 268 270 273 275 276 277 276 274 272 270 268 266 264 262 259 257 254 249 243 240 239 241 241 242 241 242 241 237 228 219 212 209 208 212
288 287 285 283 282 281 281 280 279 278 277 277 275 274 273 271 269 267 265 265 264 264 266 269 271 271 272 273 274 276 277 277 275 272 271 271 273 275 277 278 279 278 277 275 273 271 268 265 262 259 256 252 246 240 236 236 239 241 241 241 241 240 237 229 220 213 207 204 209